Regional Weather Roundup
Issued by NWS Cleveland, OH

Home | Current Version | Previous Version | Graphics & Text | Print | Product List | Glossary On
Versions: 1 2 3 4 5 6 7 8 9 10 11 12 13 14 15 16 17 18 19 20 21 22 23 24 25 26 27 28 29 30 31 32 33 34 35 36 37 38 39 40 41 42 43 44 45 46 47 48 49 50
000
ASUS41 KCLE 020702
RWRCLE
OHIO REGIONAL WEATHER ROUNDUP
NATIONAL WEATHER SERVICE CLEVELAND, OH
300 AM EDT SUN AUG 02 2015

NOTE: "FAIR" INDICATES FEW OR NO CLOUDS BELOW 12,000 FEET WITH NO
SIGNIFICANT WEATHER AND/OR OBSTRUCTIONS TO VISIBILITY.

OHZ001>008-015>018-024>027-034-035-043-044-020800-
   NORTHWEST OHIO

CITY           SKY/WX    TMP DP  RH WIND       PRES   REMARKS
DEFIANCE       CLEAR     68  60  75 CALM      29.91S
FINDLAY        PTCLDY    68  59  73 SW8       29.92S
TOLEDO EXPRESS CLEAR     64  58  80 SW5       29.91S
TOLEDO EXEC    CLEAR     68  57  68 SW6       29.91S
LIMA           PTCLDY    68  58  70 SW8       29.95S
$$

OHZ009>014-019>023-028>033-038-089-020800-
   NORTHEAST OHIO

CITY           SKY/WX    TMP DP  RH WIND       PRES   REMARKS
CLE-HOPKINS    CLOUDY    68  55  63 SW7       29.94S
CLE-LAKEFRONT  MOCLDY    72  56  57 SW6       29.90F
CUY CO. ARPT   NOT AVBL
LORAIN-ELYRIA  MOCLDY    64  55  72 SW5       29.93S
ASHTABULA      MOCLDY    63  56  78 CALM      29.93R
AKRON-CANTON   PTCLDY    64  55  72 SW3       29.95F
WOOSTER        MOCLDY    60  58  92 SW3       29.96S
MANSFIELD      MOCLDY    65  57  75 S3        29.96S
YOUNGSTOWN     PTCLDY    64  57  78 S3        29.94S
$$

OHZ042-051>053-060>062-070>072-077>081-020800-
  SOUTHWEST OHIO

CITY           SKY/WX    TMP DP  RH WIND       PRES   REMARKS
CINC-COVINGTON PTCLDY    64  60  87 CALM      30.00S
CINC-LUNKEN    CLEAR     62  61  96 CALM      30.00S
HAMILTON       CLEAR     63  61  93 CALM      30.00S
DAYTON         MOCLDY    66  59  78 SW6       29.99S
WRIGHT-PAT AFB NOT AVBL
DAYTON GENERAL PTCLDY    67  58  72 S3        29.99S
WILMINGTON     PTCLDY    62  58  86 SW3       30.00S
$$

OHZ036-037-039>041-045>050-054>059-063>069-073>076-082>088-020800-
  CENTRAL AND SOUTHEAST OHIO

CITY           SKY/WX    TMP DP  RH WIND       PRES   REMARKS
COLUMBUS       PTCLDY    67  58  72 CALM      29.97R
OSU AIRPORT    CLEAR     67  56  67 SW6       29.97S
BOLTON FIELD   NOT AVBL
RICKENBACK AFB CLEAR     61  58  90 S5        29.97S
NEWARK         CLEAR     60  58  92 CALM      29.97S
MARION         CLOUDY    71  56  58 W8        29.95F
LANCASTER      CLEAR     58  56  93 E3        29.98R
ZANESVILLE     CLEAR     60  56  86 S3        29.97S
NEW PHILLY     CLEAR     58  57  97 SE5       29.96F
$$


USA.gov is the U.S. government's official web portal to all federal, state and local government web resources and services.